• Join FlightAware (Why Join?)
  • Login
  • US Flag GB Flag 
00:21 EDT


 

Airport Tracker/Info


-or-


 

Live Flight TrackerFlight Track Log ✈ SWA796 ✈ 04-May-2013 ✈ KCMH - KPHX

Flight Track Log - Related Links

Times and Time Zones

All times are in EDT time to prevent confusion due to time zone crossing. See the SWA796 flight status page for this flight to view local times or setup timezone preferences in your user account.

Time Position Orientation Groundspeed Altitude Reporting Facility
EDT Latitude Longitude Course Direction KTS MPH feet Rate Location/Type
13:02 39.9925 -82.8083 91° East 171 197 3,200  Level Indianapolis Center
13:03 39.9989 -82.7814 73° East 191 220 4,100 2,160 Climbing Indianapolis Center
13:03 40.0447 -82.7817 360° North 256 295 5,400 1,860 Climbing Indianapolis Center
13:04 40.0575 -82.8047 306° West 252 290 6,000 2,220 Climbing Indianapolis Center
13:05 40.0597 -82.9067 272° West 287 330 8,600 2,040 Climbing Indianapolis Center
13:06 40.0586 -83.0231 269° West 314 361 10,300 2,580 Climbing Indianapolis Center
13:07 40.0544 -83.1758 268° West 360 414 14,000 3,000 Climbing Indianapolis Center
13:08 40.0425 -83.3108 263° West 375 432 16,500 2,460 Climbing Indianapolis Center
13:09 40.0208 -83.4519 259° West 396 456 19,100 2,400 Climbing Indianapolis Center
13:10 40.0008 -83.5969 260° West 409 471 21,500 2,400 Climbing Indianapolis Center
13:11 39.9806 -83.7478 260° West 423 487 24,100 2,340 Climbing Indianapolis Center
13:12 39.9597 -83.8983 260° West 422 486 26,400 1,800 Climbing Indianapolis Center
13:13 39.9383 -84.0525 260° West 428 493 27,800 1,380 Climbing Indianapolis Center
13:14 39.9128 -84.2419 260° West 447 514 29,300 1,440 Climbing Indianapolis Center
13:15 39.8889 -84.4092 260° West 464 534 30,800 1,500 Climbing Indianapolis Center
13:16 39.8656 -84.5761 260° West 467 537 32,400 1,440 Climbing Indianapolis Center
13:17 39.8417 -84.7408 259° West 462 532 33,800 780 Climbing Indianapolis Center
13:18 39.8167 -84.9086 259° West 462 532 34,000 660 Climbing Indianapolis Center
13:19 39.7928 -85.0725 259° West 463 533 35,200 960 Climbing Indianapolis Center
13:20 39.7692 -85.2322 259° West 455 524 36,000 360 Climbing Indianapolis Center
13:21 39.7442 -85.3950 259° West 458 527 36,000 300 Level Indianapolis Center
13:22 39.7203 -85.5575 259° West 460 529 36,700 900 Climbing Indianapolis Center
13:23 39.6958 -85.7197 259° West 461 531 37,900 600 Climbing Indianapolis Center
13:24 39.6658 -85.9125 259° West 457 526 38,000  Climbing Indianapolis Center
13:25 39.6411 -86.0753 259° West 457 526 38,000  Level Indianapolis Center
13:26 39.6144 -86.2386 258° West 455 524 38,000  Level Indianapolis Center
13:27 39.5900 -86.4028 259° West 455 524 38,000  Level Indianapolis Center
13:28 39.5631 -86.5653 258° West 457 526 38,000  Level Indianapolis Center
13:29 39.5364 -86.7258 258° West 456 525 38,000  Level Indianapolis Center
13:30 39.5119 -86.8858 259° West 455 524 38,000  Level Indianapolis Center
13:31 39.4861 -87.0450 258° West 454 522 38,000  Level Indianapolis Center
13:32 39.4592 -87.2033 258° West 453 521 38,000  Level Indianapolis Center
13:33 39.4319 -87.3622 258° West 454 522 38,000  Level Indianapolis Center
13:34 39.4042 -87.5219 257° West 457 526 38,000  Level Indianapolis Center
13:35 39.3742 -87.7036 258° West 455 524 38,000  Level Indianapolis Center
13:36 39.3453 -87.8633 257° West 457 526 38,000  Level Indianapolis Center
13:37 39.3286 -87.9597 257° West 456 525 38,000  Level Kansas City Center
13:38 39.3011 -88.1186 257° West 455 524 38,000  Level Kansas City Center
13:39 39.2736 -88.2778 257° West 455 524 38,000  Level Kansas City Center
13:40 39.2453 -88.4381 257° West 456 525 38,000  Level Kansas City Center
13:41 39.2161 -88.5986 257° West 457 526 38,000  Level Kansas City Center
13:42 39.1800 -88.7917 256° West 463 533 38,000  Level Kansas City Center
13:43 39.1503 -88.9536 257° West 465 535 38,000  Level Kansas City Center
13:44 39.1200 -89.1186 257° West 465 535 38,000  Level Kansas City Center
13:45 39.0886 -89.2939 257° West 468 539 38,000  Level Kansas City Center
13:46 39.0583 -89.4561 257° West 468 539 38,000  Level Kansas City Center
13:47 39.0253 -89.6314 256° West 469 540 38,000  Level Kansas City Center
13:48 38.9939 -89.7950 256° West 473 544 38,000  Level Kansas City Center
13:49 38.9597 -89.9731 256° West 478 550 38,000  Level Kansas City Center
13:50 38.9303 -90.1300 256° West 481 554 38,000  Level Kansas City Center
13:51 38.8989 -90.3031 257° West 480 552 38,000  Level Kansas City Center
13:52 38.8656 -90.4717 256° West 484 557 38,000  Level Kansas City Center
13:53 38.8414 -90.6381 259° West 475 547 38,000  Level Kansas City Center
13:54 38.8178 -90.8189 261° West 474 545 38,000  Level Kansas City Center
13:56 38.7964 -90.9856 261° West 476 548 38,000  Level Kansas City Center
13:57 38.7747 -91.1519 261° West 477 549 38,000  Level Kansas City Center
13:58 38.7525 -91.3178 260° West 474 545 38,000  Level Kansas City Center
13:59 38.7300 -91.4822 260° West 472 543 38,000  Level Kansas City Center
14:00 38.7031 -91.6719 260° West 473 544 38,000  Level Kansas City Center
14:01 38.6806 -91.8389 260° West 475 547 38,000  Level Kansas City Center
14:02 38.6556 -92.0036 259° West 473 544 38,000  Level Kansas City Center
14:03 38.6319 -92.1703 260° West 476 548 38,000  Level Kansas City Center
14:04 38.6022 -92.3689 259° West 476 548 38,000  Level Kansas City Center
14:05 38.5775 -92.5325 259° West 474 545 38,000  Level Kansas City Center
14:06 38.5533 -92.6978 259° West 473 544 38,000  Level Kansas City Center
14:07 38.5278 -92.8644 259° West 476 548 38,000  Level Kansas City Center
14:08 38.5031 -93.0303 259° West 477 549 38,000  Level Kansas City Center
14:09 38.4772 -93.1961 259° West 477 549 38,000  Level Kansas City Center
14:10 38.4528 -93.3606 259° West 475 547 38,000  Level Kansas City Center
14:11 38.4217 -93.5567 259° West 471 542 38,000  Level Kansas City Center
14:12 38.3958 -93.7189 259° West 469 540 38,000  Level Kansas City Center
14:13 38.3717 -93.8814 259° West 467 537 38,000  Level Kansas City Center
14:14 38.3458 -94.0447 259° West 469 540 38,000  Level Kansas City Center
14:15 38.3181 -94.2131 258° West 468 539 38,000  Level Kansas City Center
14:16 38.2922 -94.3686 258° West 467 537 38,000  Level Kansas City Center
14:17 38.2622 -94.5494 258° West 467 537 38,000  Level Kansas City Center
14:18 38.2392 -94.7036 259° West 466 536 38,000  Level Kansas City Center
14:19 38.2147 -94.8597 259° West 466 536 38,000  Level Kansas City Center
14:20 38.1853 -95.0372 258° West 463 533 38,000  Level Kansas City Center
14:21 38.1606 -95.1925 259° West 466 536 38,000  Level Kansas City Center
14:22 38.1303 -95.3711 258° West 464 534 38,000  Level Kansas City Center
14:23 38.1039 -95.5231 258° West 462 532 38,000  Level Kansas City Center
14:24 38.0775 -95.6756 258° West 462 532 38,000  Level Kansas City Center
14:25 38.0464 -95.8525 257° West 459 528 38,000  Level Kansas City Center
14:26 38.0206 -96.0053 258° West 462 532 38,000  Level Kansas City Center
14:27 37.9903 -96.1853 258° West 467 537 38,000  Level Kansas City Center
14:28 37.9642 -96.3458 258° West 466 536 38,000  Level Kansas City Center
14:29 37.9372 -96.5039 258° West 461 531 38,000  Level Kansas City Center
14:30 37.9114 -96.6622 258° West 459 528 38,000  Level Kansas City Center
14:32 37.8856 -96.8192 258° West 456 525 38,000  Level Kansas City Center
14:33 37.8575 -96.9736 257° West 452 520 38,000  Level Kansas City Center
14:34 37.8300 -97.1256 257° West 444 511 38,000  Level Kansas City Center
14:35 37.8022 -97.2761 257° West 439 505 38,000  Level Kansas City Center
14:36 37.7697 -97.4531 257° West 431 496 38,000  Level Kansas City Center
14:37 37.7417 -97.6003 256° West 427 491 38,000  Level Kansas City Center
14:38 37.7136 -97.7467 256° West 423 487 38,000  Level Kansas City Center
14:39 37.6856 -97.8933 256° West 424 488 38,000  Level Kansas City Center
14:40 37.6581 -98.0386 257° West 423 487 38,000  Level Kansas City Center
14:41 37.6306 -98.1822 256° West 421 484 38,000  Level Kansas City Center
14:42 37.6014 -98.3253 256° West 419 482 38,000  Level Kansas City Center
14:43 37.5719 -98.4681 255° West 420 483 38,000  Level Kansas City Center
14:44 37.5447 -98.6106 256° West 417 480 38,000  Level Kansas City Center
14:45 37.5161 -98.7531 256° West 419 482 38,000  Level Kansas City Center
14:46 37.4867 -98.8919 255° West 414 476 38,000  Level Kansas City Center
14:47 37.4578 -99.0317 255° West 412 474 38,000  Level Kansas City Center
14:48 37.4236 -99.2006 256° West 414 476 38,000  Level Kansas City Center
14:49 37.3956 -99.3411 256° West 415 478 38,000  Level Kansas City Center
14:50 37.3669 -99.4778 255° West 416 479 38,000  Level Kansas City Center
14:51 37.3342 -99.6311 255° West 408 470 38,000  Level Kansas City Center
14:52 37.3078 -99.7594 256° West 400 460 38,000  Level Kansas City Center
14:53 37.2811 -99.8864 255° West 394 453 38,000  Level Kansas City Center
14:54 37.2489 -100.0344 255° West 392 451 38,000  Level Kansas City Center
14:55 37.2231 -100.1606 256° West 391 450 38,000  Level Kansas City Center
14:56 37.1903 -100.3078 254° West 391 450 38,000  Level Kansas City Center
14:57 37.1625 -100.4339 255° West 391 450 38,000  Level Kansas City Center
14:58 37.1353 -100.5594 255° West 389 448 38,000  Level Kansas City Center
14:59 37.1042 -100.7044 255° West 387 445 38,000  Level Kansas City Center
15:00 37.0767 -100.8286 255° West 386 444 38,000  Level Kansas City Center
15:01 37.0439 -100.9711 254° West 382 440 38,000  Level Kansas City Center
15:02 37.0072 -101.0911 249° West 384 442 38,000  Level Kansas City Center
15:03 36.9700 -101.2100 249° West 384 442 38,000  Level Kansas City Center
15:04 36.9264 -101.3494 249° West 385 443 38,000  Level Kansas City Center
15:05 36.8886 -101.4708 249° West 388 447 38,000  Level Albuquerque Center
15:06 36.8503 -101.5925 249° West 391 450 38,000  Level Albuquerque Center
15:07 36.8047 -101.7325 248° West 390 449 38,000  Level Albuquerque Center
15:08 36.7658 -101.8550 248° West 393 452 38,000 420 Level Albuquerque Center
15:09 36.7206 -101.9961 248° West 394 453 38,900 780 Climbing Albuquerque Center
15:10 36.6814 -102.1189 248° West 395 455 39,700 480 Climbing Albuquerque Center
15:11 36.6367 -102.2586 248° West 398 458 40,000 120 Climbing Albuquerque Center
15:12 36.5958 -102.3847 248° West 396 456 40,000  Level Albuquerque Center
15:14 36.5667 -102.5178 255° West 398 458 40,000  Level Albuquerque Center
15:15 36.5392 -102.6497 255° West 397 457 40,000  Level Albuquerque Center
15:16 36.5114 -102.7794 255° West 393 452 40,000  Level Albuquerque Center
15:17 36.4817 -102.9211 255° West 388 447 40,000  Level Albuquerque Center
15:18 36.4550 -103.0525 256° West 389 448 40,000  Level Albuquerque Center
15:19 36.4275 -103.1833 255° West 388 447 40,000  Level Albuquerque Center
15:20 36.3989 -103.3156 255° West 391 450 40,000  Level Albuquerque Center
15:21 36.3711 -103.4467 255° West 392 451 40,000  Level Albuquerque Center
15:22 36.3417 -103.5764 254° West 390 449 40,000  Level Albuquerque Center
15:23 36.3125 -103.7078 255° West 392 451 40,000  Level Albuquerque Center
15:24 36.2786 -103.8594 255° West 390 449 40,000  Level Albuquerque Center
15:25 36.2497 -103.9908 255° West 392 451 40,000  Level Albuquerque Center
15:26 36.2197 -104.1233 254° West 395 455 40,000  Level Albuquerque Center
15:27 36.1897 -104.2528 254° West 393 452 40,000  Level Albuquerque Center
15:28 36.1586 -104.3856 254° West 397 457 40,000  Level Albuquerque Center
15:29 36.1289 -104.5181 255° West 398 458 40,000  Level Albuquerque Center
15:30 36.0992 -104.6503 254° West 397 457 40,000  Level Albuquerque Center
15:31 36.0686 -104.7844 254° West 402 463 40,000  Level Albuquerque Center
15:32 36.0297 -104.9439 253° West 412 474 40,000  Level Albuquerque Center
15:33 35.9997 -105.0783 255° West 408 470 40,000  Level Albuquerque Center
15:34 35.9683 -105.2114 254° West 403 464 40,000  Level Albuquerque Center
15:35 35.9372 -105.3458 254° West 404 465 40,000  Level Albuquerque Center
15:36 35.9053 -105.4811 254° West 407 468 40,000  Level Albuquerque Center
15:37 35.8728 -105.6094 253° West 407 468 40,000  Level Albuquerque Center
15:38 35.8419 -105.7431 254° West 407 468 40,000  Level Albuquerque Center
15:39 35.8089 -105.8756 253° West 406 467 40,000  Level Albuquerque Center
15:40 35.7772 -106.0078 254° West 404 465 40,000  Level Albuquerque Center
15:41 35.7403 -106.1656 254° West 401 461 40,000  Level Albuquerque Center
15:42 35.7086 -106.2992 254° West 402 463 40,000  Level Albuquerque Center
15:43 35.6761 -106.4228 252° West 399 459 40,000  Level Albuquerque Center
15:44 35.6422 -106.5675 254° West 396 456 40,000  Level Albuquerque Center
15:45 35.6131 -106.6828 253° West 395 455 40,000  Level Albuquerque Center
15:46 35.5817 -106.8108 253° West 394 453 40,000  Level Albuquerque Center
15:47 35.5492 -106.9378 253° West 391 450 40,000  Level Albuquerque Center
15:48 35.5106 -107.0906 253° West 394 453 40,000  Level Albuquerque Center
15:49 35.4775 -107.2225 253° West 392 451 40,000  Level Albuquerque Center
15:50 35.4461 -107.3439 252° West 390 449 40,000  Level Albuquerque Center
15:52 35.4083 -107.4869 252° West 393 452 40,000  Level Albuquerque Center
15:53 35.3772 -107.6108 253° West 395 455 40,000  Level Albuquerque Center
15:54 35.3447 -107.7342 252° West 396 456 40,000  Level Albuquerque Center
15:55 35.3089 -107.8775 253° West 395 455 40,000  Level Albuquerque Center
15:56 35.2758 -108.0006 252° West 396 456 40,000  Level Albuquerque Center
15:57 35.2375 -108.1453 252° West 398 458 40,000  Level Albuquerque Center
15:58 35.2047 -108.2711 252° West 403 464 40,000  Level Albuquerque Center
15:59 35.1719 -108.3956 252° West 402 463 40,000  Level Albuquerque Center
16:00 35.1331 -108.5394 252° West 399 459 40,000  Level Albuquerque Center
16:01 35.0997 -108.6656 252° West 404 465 40,000  Level Albuquerque Center
16:02 35.0608 -108.8103 252° West 403 464 40,000  Level Albuquerque Center
16:03 35.0283 -108.9319 252° West 397 457 40,000  Level Albuquerque Center
16:04 34.9947 -109.0558 252° West 398 458 40,000  Level Albuquerque Center
16:05 34.9536 -109.1956 250° West 393 452 40,000  Level Albuquerque Center
16:06 34.9100 -109.3131 246° West 396 456 40,000 -180 Level Albuquerque Center
16:07 34.8603 -109.4525 247° West 399 459 39,700 -1,260 Descending Albuquerque Center
16:08 34.8169 -109.5644 245° Southwest 390 449 37,500 -1,860 Descending Albuquerque Center
16:09 34.7661 -109.6972 245° Southwest 387 445 36,000 -780 Descending Albuquerque Center
16:10 34.7236 -109.8153 246° West 394 453 36,000  Level Albuquerque Center
16:11 34.6797 -109.9331 246° West 398 458 36,000  Level Albuquerque Center
16:12 34.6286 -110.0706 246° West 400 460 36,000  Level Albuquerque Center
16:13 34.5881 -110.1942 248° West 408 470 36,000 -1,080 Level Albuquerque Center
16:14 34.5331 -110.3244 243° Southwest 392 451 33,800 -1,980 Descending Albuquerque Center
16:15 34.4967 -110.4286 247° West 394 453 32,000 -1,920 Descending Albuquerque Center
16:16 34.4525 -110.5503 246° West 398 458 29,900 -2,280 Descending Albuquerque Center
16:17 34.3983 -110.6928 245° Southwest 391 450 27,300 -2,280 Descending Albuquerque Center
16:18 34.3486 -110.8031 241° Southwest 380 437 25,300 -1,980 Descending Albuquerque Center
16:19 34.2786 -110.8919 226° Southwest 365 420 23,300 -1,920 Descending Albuquerque Center
16:20 34.2131 -110.9786 228° Southwest 354 407 21,400 -1,860 Descending Albuquerque Center
16:21 34.1478 -111.0622 227° Southwest 347 399 19,500 -1,920 Descending Albuquerque Center
16:22 34.0850 -111.1425 227° Southwest 335 386 17,500 -1,860 Descending Albuquerque Center
16:23 34.0247 -111.2225 228° Southwest 325 374 15,800 -1,740 Descending Albuquerque Center
16:24 33.9617 -111.3014 226° Southwest 325 374 14,000 -1,740 Descending Albuquerque Center
16:25 33.8897 -111.3950 227° Southwest 315 362 12,300 -1,500 Descending Albuquerque Center
16:26 33.8264 -111.4525 217° Southwest 287 330 11,000 -1,020 Descending Albuquerque Center
16:27 33.7636 -111.5072 216° Southwest 278 320 10,300 -900 Descending Albuquerque Center
16:28 33.7036 -111.5581 215° Southwest 264 304 9,200 -840 Descending Albuquerque Center
16:29 33.6436 -111.6100 216° Southwest 263 303 8,600 -900 Descending Albuquerque Center
16:31 33.5867 -111.6575 215° Southwest 252 290 7,400 -1,200 Descending Albuquerque Center
16:32 33.5306 -111.7042 215° Southwest 245 282 6,200 -1,140 Descending Albuquerque Center
16:33 33.4944 -111.7686 236° Southwest 238 274 5,100 -1,020 Descending Albuquerque Center
16:34 33.4658 -111.8361 243° Southwest 229 264 4,200 -720 Descending Albuquerque Center
16:35 33.4439 -111.8997 248° West 159 183 3,700 -1,080 Descending Albuquerque Center
16:36 33.4406 -111.9469 265° West 144 166 2,000 -1,260 Descending Albuquerque Center
16:37 33.4397 -111.9967 269° West 141 162 1,100 -900 Descending Albuquerque Center
16:39 33.4343 -112.0116 270° West  Level Estimated